Regional Weather Roundup
Issued by NWS

Home | Current Version | Previous Version | Graphics & Text | Print | Product List | Glossary On
Versions: 1 2 3 4 5 6 7 8 9 10 11 12 13 14 15 16 17 18 19 20 21 22 23 24 25 26 27
000
ASUS45 KPSR 260510
RWRAZ

ARIZONA HOURLY REGIONAL WEATHER ROUNDUP
NATIONAL WEATHER SERVICE PHOENIX AZ
1000 PM MST TUE APR 25 2017

NOTE: FAIR INDICATES FEW OR NO CLOUDS BELOW 12,000 FEET WITH NO
SIGNIFICANT WEATHER AND/OR OBSTRUCTIONS TO VISIBILITY.

AZZ001>003-036-260600-
NORTHWEST ARIZONA

CITY           SKY/WX    TMP DP  RH WIND       PRES   REMARKS
BULLHEAD CITY  CLEAR     77  16  10 N12       29.78R
KINGMAN        CLEAR     48  19  31 SE6       29.90R
$$

AZZ004>008-015-016-018-260600-
NORTH CENTRAL ARIZONA

CITY           SKY/WX    TMP DP  RH WIND       PRES   REMARKS
GRAND CANYON   CLEAR     40  16  37 CALM      29.97R
PRESCOTT       CLEAR     52  17  25 W9        29.93R
FLAGSTAFF      CLEAR     36  18  48 E5        29.98R WCI  32
PAYSON         CLEAR     55  10  16 NW6       29.94R
PAGE           CLEAR     55  18  23 W7        29.89R
$$

AZZ009>014-017-260600-
NORTHEAST ARIZONA

CITY           SKY/WX    TMP DP  RH WIND       PRES   REMARKS
WINSLOW        CLEAR     53  18  25 NW15      29.91R
SAINT JOHNS    CLEAR     43  30  60 CALM      29.90R
WINDOW ROCK    CLEAR     40  22  48 N7        29.91R
SHOW LOW       CLEAR     41  16  36 N3        29.96R
$$

AZZ540-542>544-546-548-260600-
GREATER PHOENIX AREA

CITY           SKY/WX    TMP DP  RH WIND       PRES   REMARKS
PHOENIX        CLEAR     79  29  16 W17       29.73R
BUCKEYE        CLEAR     73  27  17 SW7       29.76R
LUKE AFB       PTCLDY    77  29  17 W13       29.74R
DEER VALLEY    CLEAR     71  16  12 W6        29.76R
SCOTTSDALE     CLEAR     76  19  11 W7        29.77R
MESA-GATEWAY   PTCLDY    75  30  19 W17G24    29.75R
$$

AZZ539-553-260600-
SOUTHWEST MARICOPA COUNTY AND PINAL COUNTY

CITY           SKY/WX    TMP DP  RH WIND       PRES   REMARKS
CASA GRANDE    CLEAR     70  31  23 W8        29.78R
GILA BEND      FAIR      74  28  18 SW8       29.76R
$$

AZZ503-504-507>509-260600-
SOUTHEAST ARIZONA

CITY           SKY/WX    TMP DP  RH WIND       PRES   REMARKS
TUCSON         PTCLDY    71  36  27 W9        29.85R
DAVIS-MONTHAN  PTCLDY    71  36  28 W12       29.84R
NOGALES        PTCLDY    62  37  39 SW6       29.90R
SIERRA VISTA   CLEAR     62  33  34 W21       29.91R
DOUGLAS        PTCLDY    65  41  41 W17       29.87R
SAFFORD        CLEAR     67  31  26 NW15      29.76R
$$

AZZ532-260600-
SOUTHWEST ARIZONA

CITY           SKY/WX    TMP DP  RH WIND       PRES   REMARKS
YUMA           MOCLDY    73  48  41 W13       29.78R
$$

CAZ041-043-047-048-061-525>527-560>570-260600-
SOUTHERN CALIFORNIA

CITY           SKY/WX    TMP DP  RH WIND       PRES   REMARKS
DOWNTOWN L.A.  MOCLDY    71  38  29 N9G18     29.88R
L.A. AIRPORT   PTCLDY    71  33  24 N23G33    29.88S
SAN DIEGO      PTCLDY    63  55  75 CALM      29.94S
BURBANK        MOCLDY    67  36  31 NW12G24   29.91S
ONTARIO        MOCLDY    65  43  44 CALM      29.91R
RIVERSIDE      PTCLDY    65  45  48 CALM      29.91R
PALM SPRINGS   MOCLDY    74  45  35 NW17G26   29.82R
EL CENTRO NAS  MOCLDY    71  46  40 W13       29.81R
IMPERIAL       PTCLDY    69  50  50 W12       29.78R
BLYTHE         PTCLDY    76  31  19 W7        29.77R
NEEDLES        PTCLDY    77  17  10 N10       29.78R
$$

NVZ020-UTZ003-260600-
SOUTHERN NEVADA-UTAH

CITY           SKY/WX    TMP DP  RH WIND       PRES   REMARKS
LAS VEGAS      PTCLDY    70  12  10 NE7       29.86R
SALT LAKE CITY PTCLDY    46  38  73 SE9       29.93R
$$

NMZ009-TXZ055-260600-
NEW MEXICO-WEST TEXAS

CITY           SKY/WX    TMP DP  RH WIND       PRES   REMARKS
ALBUQUERQUE    CLOUDY    47  36  65 S7        29.80R
EL PASO        MOCLDY    72  33  24 NW21G43   29.71R
$$


........................KEY........................
SKY/WX - SKY CONDITION/WEATHER
TMP    - TEMPERATURE IN FAHRENHEIT
DP     - DEW POINT IN FAHRENHEIT
RH     - RELATIVE HUMIDITY IN PERCENT
WIND   - DIRECTION AND SPEED IN MILES PER HOUR (MPH)
VRB    - VARIABLE WIND DIRECTION
PRES   - MEAN SEA LEVEL PRESSURE IN INCHES OF MERCURY
         F - FALLING PRESSURE   R - RISING PRESSURE
         S - STEADY PRESSURE
VSB    - VISIBILITY IN MILES
HX     - HEAT INDEX IN FAHRENHEIT
WCI    - WIND CHILL INDEX IN FAHRENHEIT
TC     - TEMPERATURE IN CELSIUS WHICH IS ALSO KNOWN AS
         TEMPERATURE IN CENTIGRADE
AFB    - AIR FORCE BASE
         LUKE AFB IS LUKE AIR FORCE BASE
         DAVIS-MONTHAN IS DAVIS-MONTHAN AIR FORCE BASE
NAS    - NAVAL AIR STATION
         EL CENTRO NAS IS EL CENTRO NAVAL AIR STATION
N/A    - NOT AVAILABLE





USA.gov is the U.S. government's official web portal to all federal, state and local government web resources and services.